Regional Weather Roundup
Issued by NWS

Home | Current Version | Previous Version | Text Only | Print | Product List | Glossary Off
Versions: 1 2 3 4 5 6 7 8 9 10 11 12 13 14 15 16 17 18 19 20 21 22 23 24 25 26 27 28 29 30 31 32 33 34 35 36 37 38 39 40 41 42 43 44 45 46 47 48 49 50

000
ASUS43 KIND 260459
RWRIN

WEATHER ROUNDUP FOR INDIANA
NATIONAL WEATHER SERVICE INDIANAPOLIS IN
100 AM EDT WED APR 26 2017

NOTE: "FAIR" INDICATES FEW OR NO CLOUDS BELOW 12,000 FEET WITH NO
SIGNIFICANT WEATHER AND/OR OBSTRUCTIONS TO VISIBILITY.

* - STATION DOES NOT REPORT WEATHER SUCH AS PRECIPITATION OR FOG.

+ - STATION NOT QUALITY CONTROLLED BY THE NATIONAL WEATHER SERVICE.
    USE DATA WITH CAUTION...ESPECIALLY DEWPOINT AND RELATIVE
    HUMIDITY OBSERVATIONS.

INZ001>003-010>013-019-020-260600-
NORTHWEST INDIANA

CITY           SKY/WX    TMP DP  RH WIND       PRES   REMARKS
KNOX *+        CLOUDY    66  34  30 SE14      29.62S
MONTICELLO +   CLOUDY    66  55  66 S7        29.62S

$$

LMZ046-743>745-260600-
SOUTHERN LAKE MICHIGAN

STATION/POSITION TIME  TEMP    WIND        PRES    WAVE
                       AIR SEA DIR/SP/G            HT
                 (UTC) (F)     (DEG/KT/KT) (MB)    (FT)
BURNS HARBOR     0440   70     170/  9/ 13 1002.7F
MICHIGAN CITY    0430   69     140/  9/ 10   N/A

$$

INZ004-005-014>016-021>024-260600-
NORTH CENTRAL INDIANA

CITY           SKY/WX    TMP DP  RH WIND       PRES   REMARKS
GOSHEN         CLOUDY    65  53  65 S12       29.64F
SOUTH BEND     MOCLDY    67  55  65 S12       29.64S

$$

INZ006>009-017-018-025>027-260600-
NORTHEAST INDIANA

CITY           SKY/WX    TMP DP  RH WIND       PRES   REMARKS
ANGOLA *+      CLEAR     57  54  88 SE7       29.68F
FORT WAYNE     PTCLDY    61  53  75 E7        29.67F
KENDALLVILLE + CLEAR     58  55  87 SE6       29.68F

$$

INZ028-029-035-036-043>045-051>053-260600-
WEST CENTRAL INDIANA

CITY           SKY/WX    TMP DP  RH WIND       PRES   REMARKS
CRAWFORDSVL +  CLOUDY    62  55  77 SE7       29.64S
GREENCASTLE +  CLOUDY    61  54  77 CALM      29.66R
LAFAYETTE      CLOUDY    65  56  72 SE7       29.62S
TERRE HAUTE    PTCLDY    64  54  69 SE6       29.63S

$$

INZ030>032-037>040-046>048-054>057-064-065-260600-
CENTRAL INDIANA

CITY           SKY/WX    TMP DP  RH WIND       PRES   REMARKS
INDIANAPOLIS   CLOUDY    65  55  70 SE9       29.65F
-EAGLE CREEK   CLOUDY    66  55  67 S7        29.65S
KOKOMO +       CLOUDY    63  55  75 S8        29.65F
SHELBYVILLE    CLEAR     66  54  65 S7        29.67R

$$

INZ033-034-041-042-049-050-058-059-260600-
EAST CENTRAL INDIANA

CITY           SKY/WX    TMP DP  RH WIND       PRES   REMARKS
MUNCIE         CLEAR     62  54  74 S3        29.67F
RICHMOND +     CLEAR     59  54  82 S7        29.70F

$$

INZ060-061-067>069-081>083-085>088-260600-
SOUTHWEST INDIANA

CITY           SKY/WX    TMP DP  RH WIND       PRES   REMARKS
EVANSVILLE     CLEAR     67  56  67 S5        29.64R
HUNTINGBURG *+ PTCLDY    65  56  72 S7        29.65R

$$

INZ062-063-066-070>080-084-089>092-260600-
SOUTH CENTRAL AND SOUTHEAST INDIANA

CITY           SKY/WX    TMP DP  RH WIND       PRES   REMARKS
BLOOMINGTON    CLOUDY    65  54  67 S7        29.65S
MADISON *+     CLEAR     63  54  72 CALM      29.70S
SEYMOUR +      CLEAR     63  55  77 SE6       29.66F

$$




USA.gov is the U.S. government's official web portal to all federal, state and local government web resources and services.